VU2COR-13 Weather Reports


time (UTC)temp
C
wind
direction
speed
KPH
gust
KPH
rain 1hr
cm
rain 24hr
cm
rain mn
cm
humidity
%
barometer
mb
20260504050717 30 0.0 0.0 0.00 0.00 0.00 46 979.0
20260504045717 30 0.0 0.0 0.00 0.00 0.00 47 979.1
20260504044717 31 0.0 0.0 0.00 0.00 0.00 47 979.1
20260504043717 30 0.0 0.0 0.00 0.00 0.00 48 979.1
20260504042717 30 0.0 0.0 0.00 0.00 0.00 49 979.1
20260504041717 29 0.0 0.0 0.00 0.00 0.00 50 979.1
20260504040126 28 0.0 0.0 0.00 0.00 0.00 52 978.9
20260504035126 28 0.0 0.0 0.00 0.00 0.00 53 978.9
20260504034126 28 0.0 0.0 0.00 0.00 0.00 53 978.7
20260504033126 28 0.0 0.0 0.00 0.00 0.00 54 978.2
20260504032126 28 0.0 0.0 0.00 0.00 0.00 53 978.2
20260504031126 28 0.0 0.0 0.00 0.00 0.00 55 978.0
20260504030126 28 0.0 0.0 0.00 0.00 0.00 57 978.0
20260504025126 27 0.0 0.0 0.00 0.00 0.00 58 978.0
20260504024126 28 0.0 0.0 0.00 0.00 0.00 55 977.8
20260504023126 28 0.0 0.0 0.00 0.00 0.00 53 977.7
20260504022126 29 0.0 0.0 0.00 0.00 0.00 51 978.0
20260504021126 28 0.0 0.0 0.00 0.00 0.00 51 977.9
20260504020126 28 0.0 0.0 0.00 0.00 0.00 51 977.8
20260504015126 29 0.0 0.0 0.00 0.00 0.00 52 977.6
20260504014126 30 0.0 0.0 0.00 0.00 0.00 53 977.4
20260504013126 31 0.0 0.0 0.00 0.00 0.00 53 977.3
20260504012126 31 0.0 0.0 0.00 0.00 0.00 53 977.2
20260504011126 31 0.0 0.0 0.00 0.00 0.00 53 976.9
20260504010126 31 0.0 0.0 0.00 0.00 0.00 54 976.7
20260504005126 31 0.0 0.0 0.00 0.00 0.00 55 976.5
20260504004126 30 0.0 0.0 0.00 0.00 0.00 55 976.2
20260504003126 31 0.0 0.0 0.00 0.00 0.00 55 976.0
20260504002126 31 0.0 0.0 0.00 0.00 0.00 55 975.9
20260504001126 31 0.0 0.0 0.00 0.00 0.00 57 975.5
20260504000126 31 0.0 0.0 0.00 0.00 0.00 54 975.5
20260503235126 31 0.0 0.0 0.00 0.00 0.00 54 975.2
20260503234126 31 0.0 0.0 0.00 0.00 0.00 55 975.3
20260503233126 31 0.0 0.0 0.00 0.00 0.00 55 974.9
20260503232126 31 0.0 0.0 0.00 0.00 0.00 57 974.7
20260503231126 31 0.0 0.0 0.00 0.00 0.00 57 974.8
20260503230126 32 0.0 0.0 0.00 0.00 0.00 56 974.6
20260503225126 32 0.0 0.0 0.00 0.00 0.00 56 974.6
20260503224126 32 0.0 0.0 0.00 0.00 0.00 54 974.6
20260503223126 32 0.0 0.0 0.00 0.00 0.00 53 974.5
20260503222126 31 0.0 0.0 0.00 0.00 0.00 54 974.2
20260503221126 32 0.0 0.0 0.00 0.00 0.00 53 974.4
20260503220126 31 0.0 0.0 0.00 0.00 0.00 53 974.3
20260503215126 31 0.0 0.0 0.00 0.00 0.00 55 973.8
20260503214126 31 0.0 0.0 0.00 0.00 0.00 55 973.8
20260503213125 32 0.0 0.0 0.00 0.00 0.00 55 974.0
20260503212126 32 0.0 0.0 0.00 0.00 0.00 56 973.9
20260503211126 31 0.0 0.0 0.00 0.00 0.00 57 973.6
20260503210126 32 0.0 0.0 0.00 0.00 0.00 54 973.7
20260503205126 32 0.0 0.0 0.00 0.00 0.00 56 973.9
20260503204126 32 0.0 0.0 0.00 0.00 0.00 54 973.9
20260503203126 32 0.0 0.0 0.00 0.00 0.00 56 973.9
20260503202126 32 0.0 0.0 0.00 0.00 0.00 55 973.9
20260503201126 32 0.0 0.0 0.00 0.00 0.00 55 974.0
20260503200126 32 0.0 0.0 0.00 0.00 0.00 55 973.6
20260503195125 32 0.0 0.0 0.00 0.00 0.00 54 973.1
20260503194126 32 0.0 0.0 0.00 0.00 0.00 54 973.1
20260503193125 33 0.0 0.0 0.00 0.00 0.00 53 973.1
20260503192126 33 0.0 0.0 0.00 0.00 0.00 53 973.3
20260503191126 33 0.0 0.0 0.00 0.00 0.00 53 973.4
20260503190126 32 0.0 0.0 0.00 0.00 0.00 55 973.4
20260503185126 31 0.0 0.0 0.00 0.00 0.00 59 973.5
20260503184125 31 0.0 0.0 0.00 0.00 0.00 56 974.2
20260503183128 31 0.0 0.0 0.00 0.00 0.00 58 974.6
20260503182126 32 0.0 0.0 0.00 0.00 0.00 54 974.6
20260503181126 32 0.0 0.0 0.00 0.00 0.00 53 974.9
20260503180126 32 0.0 0.0 0.00 0.00 0.00 50 975.5
20260503175125 32 0.0 0.0 0.00 0.00 0.00 47 975.5
20260503174125 33 0.0 0.0 0.00 0.00 0.00 48 976.0
20260503173126 33 0.0 0.0 0.00 0.00 0.00 47 976.0
20260503172129 34 0.0 0.0 0.00 0.00 0.00 47 975.1
20260503171125 34 0.0 0.0 0.00 0.00 0.00 48 974.6
20260503170126 33 0.0 0.0 0.00 0.00 0.00 49 974.5
20260503160126 34 0.0 0.0 0.00 0.00 0.00 49 973.7
20260503150126 35 0.0 0.0 0.00 0.00 0.00 46 973.4
20260503140125 35 0.0 0.0 0.00 0.00 0.00 46 973.3
20260503131125 35 0.0 0.0 0.00 0.00 0.00 43 973.5
20260503130125 35 0.0 0.0 0.00 0.00 0.00 42 973.5
20260503110509 21 0.0 0.0 0.00 0.00 0.00 81 641.1
20260503090509 21 0.0 0.0 0.00 0.00 0.00 81 641.1
20260503081509 21 0.0 0.0 0.00 0.00 0.00 81 641.1
20260503080509 21 0.0 0.0 0.00 0.00 0.00 81 641.1
20260503072514 21 0.0 0.0 0.00 0.00 0.00 81 641.1
20260503070557 32 0.0 0.0 0.00 0.00 0.00 55 975.0
20260503054557 30 0.0 0.0 0.00 0.00 0.00 67 975.2
20260503053557 29 0.0 0.0 0.00 0.00 0.00 68 975.2